Location: Gombori
(14.9797°N, 2.9419°W)
Time: 08:14:09
(UTC+00:00)

Palapa 6 Rocket - Pass Details

Date: 29 July 2021
Orbit: 485 x 1215 km, 22.7° (Epoch: 22 September)

Event Time Altitude Azimuth Distance (km) Brightness Sun altitude
Rises 19:24:40 0° 252° (WSW) 2,755 7.2 -10.3°
Reaches altitude 10° 19:27:04 10° 253° (WSW) 1,780 6.2 -10.9°
Maximum altitude 19:31:06 85° 340° (NNW) 499 2.6 -11.8°
Enters shadow 19:34:30 12° 71° (ENE) 1,524 4.6 -12.5°
